FW0697 Weather Reports


time (UTC)temp
F
wind
direction
speed
knots
gust
knots
rain 1hr
in
rain 24hr
in
rain mn
in
humidity
%
barometer
mb
20260905205005 100 225 3.5 7.8 0.00 0.00 0.00 50 1009.2
20260905204504 99 224 2.6 7.8 0.00 0.00 0.00 51 1009.3
20260905204005 99 212 0.9 4.3 0.00 0.00 0.00 51 1009.4
20260905202004 99 232 1.7 8.7 0.00 0.00 0.00 51 1009.6
20260905201505 99 254 2.6 7.8 0.00 0.00 0.00 50 1009.8
20260905201004 99 248 2.6 9.6 0.00 0.00 0.00 50 1009.7
20260905200504 99 226 1.7 9.6 0.00 0.00 0.00 50 1009.9
20260905200005 99 0 0.0 0.0 0.00 0.00 0.00 50 1009.9
20260905195504 98 327 0.0 1.7 0.00 0.00 0.00 51 1010.2
20260905195005 98 324 0.9 4.3 0.00 0.00 0.00 50 1010.2
20260905194504 98 321 0.9 7.8 0.00 0.00 0.00 50 1010.2
20260905194004 98 317 0.9 7.8 0.00 0.00 0.00 50 1010.4
20260905192504 98 292 0.0 4.3 0.00 0.00 0.00 50 1010.8
20260905192005 98 230 0.0 4.3 0.00 0.00 0.00 50 1010.8
20260905191005 97 0 0.0 0.0 0.00 0.00 0.00 50 1010.8
20260905190004 97 292 0.9 5.2 0.00 0.00 0.00 51 1011.0
20260905185504 97 292 0.9 5.2 0.00 0.00 0.00 50 1011.1
20260905185005 97 233 0.0 7.8 0.00 0.00 0.00 50 1011.1
20260905184504 97 233 0.9 7.8 0.00 0.00 0.00 51 1011.3
20260905182504 96 0 0.0 0.0 0.00 0.00 0.00 52 1011.5
20260905182005 96 0 0.0 0.0 0.00 0.00 0.00 52 1011.7
20260905181504 95 0 0.0 0.0 0.00 0.00 0.00 53 1011.7
20260905181004 95 0 0.0 0.0 0.00 0.00 0.00 53 1011.6
20260905180505 95 0 0.0 0.0 0.00 0.00 0.00 53 1011.8
20260905180004 95 0 0.0 0.0 0.00 0.00 0.00 55 1011.8
20260905175004 95 0 0.0 0.0 0.00 0.00 0.00 53 1011.9
20260905174504 94 0 0.0 0.0 0.00 0.00 0.00 53 1011.9
20260905174005 94 0 0.0 0.0 0.00 0.00 0.00 53 1012.0
20260905173504 94 0 0.0 0.0 0.00 0.00 0.00 53 1011.9
20260905173005 94 0 0.0 0.0 0.00 0.00 0.00 52 1012.0
20260905172504 94 0 0.0 0.0 0.00 0.00 0.00 53 1012.0
20260905172005 94 0 0.0 0.0 0.00 0.00 0.00 53 1012.2
20260905171004 94 0 0.0 0.0 0.00 0.00 0.00 53 1012.1
20260905170504 94 0 0.0 0.0 0.00 0.00 0.00 53 1012.2
20260905170004 94 0 0.0 0.0 0.00 0.00 0.00 54 1012.4
20260905165504 93 0 0.0 0.0 0.00 0.00 0.00 55 1012.4
20260905164504 93 0 0.0 0.0 0.00 0.00 0.00 56 1012.7
20260905164005 93 0 0.0 0.0 0.00 0.00 0.00 56 1012.8
20260905163004 92 120 0.0 0.9 0.00 0.00 0.00 56 1013.0
20260905162504 92 120 0.0 0.9 0.00 0.00 0.00 56 1013.2
20260905162004 92 0 0.0 0.0 0.00 0.00 0.00 58 1013.1
20260905161004 91 0 0.0 0.0 0.00 0.00 0.00 60 1012.9
20260905160504 91 199 0.0 1.7 0.00 0.00 0.00 60 1012.8
20260905160004 91 152 0.9 4.3 0.00 0.00 0.00 60 1012.9
20260905155504 91 139 0.9 4.3 0.00 0.00 0.00 61 1013.0
20260905155005 90 127 0.9 3.5 0.00 0.00 0.00 62 1013.0
20260905154504 90 127 0.9 3.5 0.00 0.00 0.00 62 1013.0
20260905154005 90 127 0.0 3.5 0.00 0.00 0.00 61 1013.1
20260905153504 89 0 0.0 0.0 0.00 0.00 0.00 62 1013.2
20260905153005 89 0 0.0 0.0 0.00 0.00 0.00 62 1013.1
20260905152504 88 0 0.0 0.0 0.00 0.00 0.00 63 1013.2
20260905152004 88 98 0.9 4.3 0.00 0.00 0.00 64 1013.2
20260905151504 88 98 0.9 4.3 0.00 0.00 0.00 66 1013.2
20260905150504 86 96 0.0 5.2 0.00 0.00 0.00 67 1013.1
20260905150005 86 94 1.7 5.2 0.00 0.00 0.00 68 1013.3
20260905145504 85 67 1.7 6.1 0.00 0.00 0.00 68 1013.4
20260905144504 84 93 2.6 7.0 0.00 0.00 0.00 69 1013.5
20260905144004 84 99 2.6 7.0 0.00 0.00 0.00 70 1013.4
20260905143504 84 87 2.6 7.0 0.00 0.00 0.00 71 1013.6
20260905143004 83 99 2.6 7.0 0.00 0.00 0.00 72 1013.5
20260905142004 82 34 1.7 7.0 0.00 0.00 0.00 75 1013.7
20260905141504 81 28 2.6 7.0 0.00 0.00 0.00 75 1013.7
20260905140504 80 34 2.6 7.8 0.00 0.00 0.00 76 1013.8
20260905140005 80 55 2.6 7.8 0.00 0.00 0.00 78 1014.0
20260905135504 79 57 2.6 6.1 0.00 0.00 0.00 80 1014.0
20260905135004 79 31 1.7 6.1 0.00 0.00 0.00 82 1013.8
20260905134504 79 17 1.7 6.1 0.00 0.00 0.00 82 1014.1
20260905133504 79 20 2.6 7.8 0.00 0.00 0.00 82 1014.2
20260905133004 79 34 3.5 7.8 0.00 0.00 0.00 82 1014.0
20260905132504 79 41 3.5 9.6 0.00 0.00 0.00 82 1014.1
20260905132004 80 24 3.5 9.6 0.00 0.00 0.00 81 1014.1
20260905131504 80 8 4.3 9.6 0.00 0.00 0.00 82 1014.4
20260905131004 80 12 2.6 8.7 0.00 0.00 0.00 81 1014.7
20260905130004 80 17 2.6 7.8 0.00 0.00 0.00 81 1014.6
20260905125504 80 23 3.5 7.8 0.00 0.00 0.00 80 1014.3
20260905125005 81 21 3.5 11.3 0.00 0.00 0.00 79 1014.1
20260905124504 81 14 2.6 11.3 0.00 0.00 0.00 78 1014.1
20260905124004 81 26 0.9 9.6 0.00 0.00 0.00 78 1014.2
20260905123504 81 55 0.9 2.6 0.00 0.00 0.00 77 1013.4
20260905123005 81 55 0.9 3.5 0.00 0.00 0.00 78 1013.3
20260905122504 81 51 2.6 6.1 0.00 0.00 0.00 78 1012.9
20260905122005 81 44 2.6 6.1 0.00 0.00 0.00 78 1012.8
20260905121504 81 27 2.6 6.1 0.00 0.00 0.00 79 1012.8
20260905121005 81 20 1.7 6.1 0.00 0.00 0.00 78 1012.9
20260905120004 81 15 0.9 5.2 0.00 0.00 0.00 79 1013.2
20260905115503 81 15 0.9 5.2 0.00 0.00 0.00 79 1013.0
20260905115004 82 16 0.9 3.5 0.00 0.00 0.00 78 1013.1
20260905114504 82 12 0.9 5.2 0.00 0.00 0.00 78 1013.0
20260905114004 82 11 0.9 5.2 0.00 0.00 0.00 78 1012.6
20260905113504 82 10 0.0 2.6 0.00 0.00 0.00 78 1012.6
20260905113005 82 10 0.0 3.5 0.00 0.00 0.00 79 1012.5
20260905112504 82 9 0.9 3.5 0.00 0.00 0.00 79 1012.4
20260905112004 82 9 1.7 3.5 0.00 0.00 0.00 79 1012.5
20260905111503 82 8 1.7 5.2 0.00 0.00 0.00 79 1012.5
20260905111004 82 17 1.7 7.0 0.00 0.00 0.00 79 1012.4
20260905110504 82 31 2.6 7.0 0.00 0.00 0.00 79 1012.2
20260905110004 82 29 3.5 10.4 0.00 0.00 0.00 79 1012.2
20260905105504 83 6 3.5 10.4 0.00 0.00 0.00 79 1012.2
20260905105004 83 327 1.7 9.6 0.00 0.00 0.00 78 1012.1
20260905104504 83 304 1.7 3.5 0.00 0.00 0.00 77 1011.6
20260905104004 83 303 1.7 3.5 0.00 0.00 0.00 77 1011.6
20260905103004 83 304 0.9 2.6 0.00 0.00 0.00 76 1011.4
20260905102504 83 303 0.9 2.6 0.00 0.00 0.00 76 1011.5
20260905102004 83 304 0.9 4.3 0.00 0.00 0.00 76 1011.5
20260905101504 83 304 1.7 4.3 0.00 0.00 0.00 76 1011.5
20260905101005 84 306 2.6 5.2 0.00 0.00 0.00 75 1011.5
20260905100504 84 312 1.7 5.2 0.00 0.00 0.00 75 1011.5
20260905100005 84 320 0.9 3.5 0.00 0.00 0.00 75 1011.6
20260905095504 84 321 0.0 1.7 0.00 0.00 0.00 74 1011.6
20260905095004 84 0 0.0 0.0 0.00 0.00 0.00 74 1011.4
20260905094503 84 0 0.0 0.0 0.00 0.00 0.00 74 1011.4
20260905094004 84 0 0.0 0.0 0.00 0.00 0.00 73 1011.5
20260905093504 84 0 0.0 0.0 0.00 0.00 0.00 73 1011.5
20260905093005 84 0 0.0 0.0 0.00 0.00 0.00 73 1011.4
20260905092504 84 0 0.0 0.0 0.00 0.00 0.00 73 1011.3
20260905092004 84 321 0.0 0.9 0.00 0.00 0.00 73 1011.2
20260905091504 84 320 0.0 0.9 0.00 0.00 0.00 72 1011.3
20260905091004 84 321 0.0 0.9 0.00 0.00 0.00 72 1011.3
20260905090503 84 321 0.0 2.6 0.00 0.00 0.00 72 1011.3
20260905090004 84 316 0.0 5.2 0.00 0.00 0.00 72 1011.3
20260905085503 84 314 0.0 5.2 0.00 0.00 0.00 72 1011.3
20260905085004 84 0 0.0 0.0 0.00 0.00 0.00 72 1011.4
20260905084004 84 303 0.9 7.0 0.00 0.00 0.00 73 1011.3
20260905083504 84 307 2.6 7.0 0.00 0.00 0.00 73 1011.3
20260905083004 84 311 0.9 6.1 0.00 0.00 0.00 74 1011.4
20260905082504 84 305 0.0 1.7 0.00 0.00 0.00 76 1011.4
20260905082005 85 0 0.0 0.0 0.00 0.00 0.00 76 1011.0
20260905081005 85 0 0.0 0.0 0.00 0.00 0.00 76 1011.1
20260905080504 85 0 0.0 0.0 0.00 0.00 0.00 76 1010.9
20260905080005 85 0 0.0 0.0 0.00 0.00 0.00 76 1011.0
20260905075504 85 0 0.0 0.0 0.00 0.00 0.00 76 1011.0
20260905075004 84 0 0.0 0.0 0.00 0.00 0.00 76 1011.2
20260905074504 84 0 0.0 0.0 0.00 0.00 0.00 76 1011.0
20260905074004 84 302 0.0 0.9 0.00 0.00 0.00 76 1011.3
20260905073503 84 301 1.7 10.4 0.00 0.00 0.00 77 1011.4
20260905072004 85 0 0.0 0.0 0.00 0.00 0.00 77 1011.4
20260905071504 85 0 0.0 0.0 0.00 0.00 0.00 77 1011.5
20260905071004 85 0 0.0 0.0 0.00 0.00 0.00 77 1011.3
20260905065504 85 0 0.0 0.0 0.00 0.00 0.00 77 1011.5
20260905065004 85 0 0.0 0.0 0.00 0.00 0.00 76 1011.6
20260905064004 85 0 0.0 0.0 0.00 0.00 0.00 76 1011.7
20260905062504 85 0 0.0 0.0 0.00 0.00 0.00 75 1011.9
20260905062005 85 0 0.0 0.0 0.00 0.00 0.00 75 1012.0
20260905061504 85 0 0.0 0.0 0.00 0.00 0.00 75 1012.0
20260905061004 86 0 0.0 0.0 0.00 0.00 0.00 74 1012.3
20260905060004 86 0 0.0 0.0 0.00 0.00 0.00 74 1012.3
20260905055504 86 0 0.0 0.0 0.00 0.00 0.00 74 1012.3
20260905055005 86 0 0.0 0.0 0.00 0.00 0.00 74 1012.2
20260905054504 86 0 0.0 0.0 0.00 0.00 0.00 74 1012.3
20260905054005 86 0 0.0 0.0 0.00 0.00 0.00 73 1012.3
20260905053505 86 0 0.0 0.0 0.00 0.00 0.00 73 1012.3
20260905053006 86 0 0.0 0.0 0.00 0.00 0.00 73 1012.2
20260905052006 87 0 0.0 0.0 0.00 0.00 0.00 72 1012.3
20260905051505 87 0 0.0 0.0 0.00 0.00 0.00 72 1012.3
20260905051005 87 0 0.0 0.0 0.00 0.00 0.00 72 1012.2
20260905050005 87 0 0.0 0.0 0.00 0.00 0.00 72 1012.3
20260905045006 87 0 0.0 0.0 0.00 0.00 0.00 71 1012.3
20260905044505 87 0 0.0 0.0 0.00 0.00 0.00 71 1012.3
20260905044005 87 0 0.0 0.0 0.00 0.00 0.00 71 1012.3
20260905043504 87 0 0.0 0.0 0.00 0.00 0.00 71 1012.3
20260905043005 87 0 0.0 0.0 0.00 0.00 0.00 71 1012.4
20260905042505 87 0 0.0 0.0 0.00 0.00 0.00 71 1012.3
20260905042005 87 0 0.0 0.0 0.00 0.00 0.00 71 1012.4
20260905041505 87 0 0.0 0.0 0.00 0.00 0.00 71 1012.3
20260905041006 87 0 0.0 0.0 0.00 0.00 0.00 71 1012.3
20260905040505 87 0 0.0 0.0 0.00 0.00 0.00 71 1012.4
20260905040006 87 0 0.0 0.0 0.00 0.00 0.00 71 1012.3
20260905035505 87 0 0.0 0.0 0.00 0.00 0.00 71 1012.3
20260905035006 87 0 0.0 0.0 0.00 0.00 0.00 71 1012.3
20260905034005 88 0 0.0 0.0 0.00 0.00 0.00 71 1012.3
20260905033504 88 0 0.0 0.0 0.00 0.00 0.00 70 1012.4
20260905033005 88 0 0.0 0.0 0.00 0.00 0.00 70 1012.4
20260905032504 88 0 0.0 0.0 0.00 0.00 0.00 70 1012.3
20260905032005 88 0 0.0 0.0 0.00 0.00 0.00 70 1012.4
20260905031504 88 0 0.0 0.0 0.00 0.00 0.00 69 1012.4
20260905031005 88 0 0.0 0.0 0.00 0.00 0.00 69 1012.5
20260905030005 88 0 0.0 0.0 0.00 0.00 0.00 68 1012.5
20260905025505 89 0 0.0 0.0 0.00 0.00 0.00 68 1012.6
20260905025006 89 0 0.0 0.0 0.00 0.00 0.00 68 1012.5
20260905024505 89 0 0.0 0.0 0.00 0.00 0.00 68 1012.6
20260905024006 89 0 0.0 0.0 0.00 0.00 0.00 68 1012.5
20260905023005 89 0 0.0 0.0 0.00 0.00 0.00 67 1012.3
20260905022005 90 0 0.0 0.0 0.00 0.00 0.00 66 1012.3
20260905021504 90 0 0.0 0.0 0.00 0.00 0.00 66 1012.3
20260905021005 90 0 0.0 0.0 0.00 0.00 0.00 66 1012.3
20260905020504 90 0 0.0 0.0 0.00 0.00 0.00 66 1012.3
20260905020005 90 0 0.0 0.0 0.00 0.00 0.00 66 1012.1
20260905014505 90 0 0.0 0.0 0.00 0.00 0.00 66 1012.1
20260905014005 90 0 0.0 0.0 0.00 0.00 0.00 66 1012.0
20260905013005 91 221 0.9 4.3 0.00 0.00 0.00 66 1012.0
20260905012505 91 221 1.7 4.3 0.00 0.00 0.00 65 1011.9
20260905012005 92 221 1.7 4.3 0.00 0.00 0.00 63 1011.9
20260905011504 92 222 1.7 4.3 0.00 0.00 0.00 63 1011.9
20260905011005 93 221 0.9 4.3 0.00 0.00 0.00 62 1011.7
20260905010504 93 221 0.9 3.5 0.00 0.00 0.00 62 1011.9
20260905010005 94 222 1.7 4.3 0.00 0.00 0.00 60 1011.7
20260905005504 94 221 1.7 4.3 0.00 0.00 0.00 59 1011.7
20260905005005 94 221 0.9 3.5 0.00 0.00 0.00 59 1011.6
20260905004504 94 222 1.7 4.3 0.00 0.00 0.00 58 1011.7
20260905004005 95 222 1.7 4.3 0.00 0.00 0.00 58 1011.6
20260905003505 95 222 1.7 4.3 0.00 0.00 0.00 57 1011.5
20260905003005 95 221 0.9 4.3 0.00 0.00 0.00 57 1011.5
20260905002504 95 222 0.0 1.7 0.00 0.00 0.00 56 1011.4
20260905002005 95 222 0.0 1.7 0.00 0.00 0.00 56 1011.3
20260905001005 96 221 1.7 4.3 0.00 0.00 0.00 55 1011.4
20260905000505 96 222 2.6 5.2 0.00 0.00 0.00 55 1011.4
20260905000004 96 224 3.5 5.2 0.00 0.00 0.00 55 1011.3
20260904235505 96 223 2.6 5.2 0.00 0.00 0.00 54 1011.3
20260904235005 96 218 2.6 5.2 0.00 0.00 0.00 54 1011.3
20260904234505 96 218 1.7 5.2 0.00 0.00 0.00 54 1011.3
20260904233504 97 12 0.9 3.5 0.00 0.00 0.00 53 1011.4
20260904233005 97 16 0.9 3.5 0.00 0.00 0.00 52 1011.2
20260904232504 97 16 1.7 5.2 0.00 0.00 0.00 52 1011.3
20260904232005 97 17 0.9 5.2 0.00 0.00 0.00 52 1011.4
20260904231504 97 18 0.9 3.5 0.00 0.00 0.00 51 1011.3
20260904231005 97 20 0.9 5.2 0.00 0.00 0.00 51 1011.3
20260904230504 98 20 1.7 5.2 0.00 0.00 0.00 51 1011.4
20260904230005 98 21 0.9 5.2 0.00 0.00 0.00 51 1011.4
20260904225005 98 21 0.9 3.5 0.00 0.00 0.00 51 1011.6
20260904224505 99 21 0.9 5.2 0.00 0.00 0.00 51 1011.4
20260904224005 99 21 1.7 5.2 0.00 0.00 0.00 50 1011.5
20260904223505 99 21 1.7 5.2 0.00 0.00 0.00 50 1011.7
20260904223005 100 22 0.9 3.5 0.00 0.00 0.00 50 1011.7
20260904222504 100 24 0.9 3.5 0.00 0.00 0.00 51 1011.7
20260904222005 100 24 2.6 7.8 0.00 0.00 0.00 51 1011.7
20260904221505 100 19 2.6 7.8 0.00 0.00 0.00 50 1011.6
20260904220504 100 355 0.9 3.5 0.00 0.00 0.00 50 1011.5
20260904220005 100 355 0.0 3.5 0.00 0.00 0.00 50 1011.6
20260904215504 100 355 0.9 3.5 0.00 0.00 0.00 50 1011.6
20260904215005 100 354 1.7 5.2 0.00 0.00 0.00 49 1011.6
20260904214005 100 344 1.7 7.0 0.00 0.00 0.00 50 1011.7
20260904212505 100 334 1.7 7.0 0.00 0.00 0.00 50 1011.7
20260904212005 100 343 2.6 7.0 0.00 0.00 0.00 49 1011.6
20260904211005 101 11 3.5 7.8 0.00 0.00 0.00 49 1011.7
20260904210504 102 330 2.6 7.8 0.00 0.00 0.00 47 1011.7
20260904210005 102 318 2.6 7.8 0.00 0.00 0.00 48 1011.8
20260904205505 102 325 2.6 7.0 0.00 0.00 0.00 46 1011.8